DB0LHR-6 Weather Reports


time (UTC)temp
F
wind
direction
speed
knots
gust
knots
rain 1hr
in
rain 24hr
in
rain mn
in
humidity
%
barometer
mb
20260506194616 51 180 0.0 0.0 0.00 0.00 0.00 97 1010.0
20260506193116 51 216 2.6 0.0 0.00 0.00 0.00 97 1010.0
20260506191616 51 184 0.0 0.0 0.00 0.00 0.00 97 1009.0
20260506190116 51 203 0.0 0.0 0.00 0.00 0.00 97 1009.0
20260506184616 51 166 1.7 0.0 0.00 0.00 0.00 96 1009.0
20260506183116 51 152 2.6 0.0 0.00 0.00 0.00 95 1009.0
20260506181616 51 222 0.0 0.0 0.00 0.00 0.00 95 1008.0
20260506180116 51 322 0.0 0.0 0.00 0.00 0.00 94 1008.0
20260506174616 51 210 0.0 0.0 0.00 0.00 0.00 94 1008.0
20260506173116 52 176 0.0 0.0 0.00 0.00 0.00 93 1008.0
20260506171616 52 273 0.9 0.0 0.00 0.00 0.00 92 1008.0
20260506170116 52 186 0.0 0.0 0.00 0.00 0.00 90 1008.0
20260506164616 53 328 0.0 0.0 0.00 0.00 0.00 89 1008.0
20260506163116 53 203 0.0 0.0 0.00 0.00 0.00 89 1008.0
20260506161616 53 218 2.6 0.0 0.00 0.00 0.00 89 1008.0
20260506160116 53 156 0.0 0.0 0.00 0.00 0.00 89 1008.0
20260506154616 54 160 3.5 0.0 0.00 0.00 0.00 89 1008.0
20260506153116 54 174 0.0 0.0 0.00 0.00 0.00 89 1008.0
20260506151616 55 327 2.6 0.0 0.00 0.00 0.00 89 1008.0
20260506150116 54 160 12.2 0.0 0.00 0.00 0.00 87 1008.0
20260506144616 55 213 1.7 0.0 0.00 0.00 0.00 86 1008.0
20260506143116 55 174 2.6 0.0 0.00 0.00 0.00 82 1008.0
20260506141616 55 222 2.6 0.0 0.00 0.00 0.00 78 1008.0
20260506140116 56 232 1.7 0.0 0.00 0.00 0.00 74 1007.0
20260506134616 57 313 1.7 0.0 0.00 0.00 0.00 76 1007.0
20260506133116 57 130 4.3 0.0 0.00 0.00 0.00 78 1007.0
20260506131616 58 185 3.5 0.0 0.00 0.00 0.00 81 1007.0
20260506130116 58 184 4.3 0.0 0.00 0.00 0.00 78 1007.0
20260506124616 59 328 0.9 0.0 0.00 0.00 0.00 71 1007.0
20260506123116 60 211 0.0 0.0 0.00 0.00 0.00 70 1007.0
20260506121616 61 188 1.7 0.0 0.00 0.00 0.00 70 1007.0
20260506120116 62 192 0.9 0.0 0.00 0.00 0.00 63 1006.0
20260506114616 62 189 7.0 0.0 0.00 0.00 0.00 60 1006.0
20260506113116 64 332 0.0 0.0 0.00 0.00 0.00 56 1006.0
20260506111616 64 195 0.0 0.0 0.00 0.00 0.00 55 1006.0
20260506110116 64 168 0.0 0.0 0.00 0.00 0.00 53 1007.0
20260506104616 64 215 0.0 0.0 0.00 0.00 0.00 55 1007.0
20260506103116 64 247 0.0 0.0 0.00 0.00 0.00 55 1006.0
20260506101616 65 221 0.0 0.0 0.00 0.00 0.00 52 1007.0
20260506100116 65 204 0.0 0.0 0.00 0.00 0.00 50 1007.0
20260506094616 64 253 0.0 0.0 0.00 0.00 0.00 54 1007.0
20260506093116 64 234 0.0 0.0 0.00 0.00 0.00 54 1007.0
20260506091616 65 148 0.0 0.0 0.00 0.00 0.00 53 1007.0
20260506090116 65 330 0.0 0.0 0.00 0.00 0.00 52 1006.0
20260506084616 65 318 1.7 0.0 0.00 0.00 0.00 51 1006.0
20260506083116 64 223 2.6 0.0 0.00 0.00 0.00 55 1006.0
20260506081616 63 215 0.9 0.0 0.00 0.00 0.00 60 1006.0
20260506080116 63 182 0.0 0.0 0.00 0.00 0.00 58 1006.0
20260506073116 61 185 3.5 0.0 0.00 0.00 0.00 64 1006.0
20260506071616 60 179 0.0 0.0 0.00 0.00 0.00 66 1006.0
20260506070116 59 145 3.5 0.0 0.00 0.00 0.00 71 1006.0
20260506061616 58 227 0.0 0.0 0.00 0.00 0.00 89 1006.0
20260506060116 56 166 0.0 0.0 0.00 0.00 0.00 91 1006.0
20260506050116 51 170 0.0 0.0 0.00 0.00 0.00 93 1007.0
20260506044616 50 122 0.0 0.0 0.00 0.00 0.00 93 1007.0
20260506043116 50 312 0.0 0.0 0.00 0.00 0.00 92 1007.0
20260506041616 50 152 0.0 0.0 0.00 0.00 0.00 92 1007.0
20260506040116 50 113 0.0 0.0 0.00 0.00 0.00 91 1007.0
20260506034616 51 136 0.0 0.0 0.00 0.00 0.00 90 1007.0
20260506033116 51 124 0.0 0.0 0.00 0.00 0.00 90 1007.0
20260506031616 51 123 0.0 0.0 0.00 0.00 0.00 89 1007.0
20260506030116 51 154 0.0 0.0 0.00 0.00 0.00 88 1007.0
20260506024616 52 182 0.0 0.0 0.00 0.00 0.00 89 1007.0
20260506023116 53 201 0.0 0.0 0.00 0.00 0.00 90 1007.0
20260506021616 53 199 0.0 0.0 0.00 0.00 0.00 91 1007.0
20260506020116 53 177 0.0 0.0 0.00 0.00 0.00 92 1008.0
20260506014615 53 168 0.0 0.0 0.00 0.00 0.00 92 1008.0
20260506013116 52 135 0.0 0.0 0.00 0.00 0.00 91 1007.0
20260506011616 53 154 0.0 0.0 0.00 0.00 0.00 91 1007.0
20260506010116 53 169 0.0 0.0 0.00 0.00 0.00 91 1008.0
20260506004616 53 145 0.0 0.0 0.00 0.00 0.00 91 1008.0
20260506003116 53 172 0.0 0.0 0.00 0.00 0.00 91 1008.0
20260506001616 53 165 0.0 0.0 0.00 0.00 0.00 91 1008.0
20260506000116 53 170 0.0 0.0 0.00 0.00 0.00 91 1008.0
20260505234616 53 159 0.0 0.0 0.00 0.00 0.00 90 1008.0
20260505233116 53 150 0.0 0.0 0.00 0.00 0.00 90 1008.0
20260505231616 54 117 0.0 0.0 0.00 0.00 0.00 90 1008.0
20260505230116 54 163 0.0 0.0 0.00 0.00 0.00 90 1008.0
20260505224616 54 316 0.0 0.0 0.00 0.00 0.00 90 1009.0
20260505223115 55 172 0.0 0.0 0.00 0.00 0.00 91 1009.0
20260505221616 55 163 0.0 0.0 0.00 0.00 0.00 91 1009.0
20260505220116 54 173 0.0 0.0 0.00 0.00 0.00 91 1009.0
20260505214616 55 161 2.6 0.0 0.00 0.00 0.00 91 1008.0
20260505213115 55 182 0.0 0.0 0.00 0.00 0.00 91 1009.0
20260505211616 55 170 0.9 0.0 0.00 0.00 0.00 90 1008.0
20260505210116 55 167 0.0 0.0 0.00 0.00 0.00 90 1008.0
20260505204615 55 144 0.9 0.0 0.00 0.00 0.00 90 1008.0
20260505203115 55 164 0.9 0.0 0.00 0.00 0.00 90 1008.0
20260505201615 56 175 1.7 0.0 0.00 0.00 0.00 90 1008.0
20260505200115 56 174 0.0 0.0 0.00 0.00 0.00 90 1008.0